Theta_e
318 321 320 320 319 319 316 314 315 317 318 317 318 319 320 320 320 317 317 319 316 315 321 321 317 318 318 319 315 310 313 316 309 306 304 302 302 300 300 299 298 298 297 296 296 296 296 296 296 296 297 297 298 299 300 302 303 304 305 307 307 308 310 311 312 312 313 314 314 314 314 314 313 314 314 314 314 314 315 315 315 315 316 316 317 318
315 320 321 320 318 318 317 315 313 313 314 314 316 317 318 318 318 316 317 320 315 315 322 320 315 318 319 317 313 312 316 315 309 306 303 302 302 300 300 299 298 298 297 296 295 295 295 295 296 296 296 296 297 297 298 299 301 302 304 304 305 306 307 308 308 309 310 310 310 310 310 311 310 310 310 310 310 310 310 310 310 310 311 312 313 313
316 318 320 317 315 315 316 315 314 315 315 315 316 316 319 320 319 319 321 320 314 314 322 319 314 318 320 315 312 312 313 309 306 305 303 302 301 300 299 298 298 297 297 296 295 294 295 295 295 295 295 295 295 296 297 298 300 301 302 303 304 305 305 306 306 307 307 307 308 308 308 308 308 307 307 306 305 305 305 304 304 305 306 307 308 309
319 320 318 314 313 315 316 317 315 316 316 318 318 318 320 320 319 323 324 321 316 314 317 316 315 318 318 314 311 307 306 305 304 303 303 302 300 300 299 298 298 297 297 296 295 294 294 294 294 294 294 294 295 295 296 297 298 299 300 301 302 303 304 304 305 305 305 305 306 306 306 306 305 305 304 304 303 303 303 302 302 302 302 303 303 304
321 321 316 313 315 316 317 318 317 316 318 322 323 319 320 320 320 322 322 320 320 321 318 314 319 324 321 316 313 307 305 304 302 302 302 301 300 300 299 298 298 297 296 296 295 294 293 293 293 293 293 293 293 294 294 294 295 296 297 299 300 301 302 303 304 304 305 305 305 305 304 304 303 303 302 302 302 302 302 302 302 302 301 301 301 301
319 318 316 316 317 317 317 319 320 319 319 324 326 322 319 319 320 321 319 318 322 326 321 313 321 332 328 322 315 308 306 305 303 302 301 301 300 299 298 298 297 297 296 295 295 294 293 293 293 292 292 293 293 293 293 293 293 294 295 296 298 299 300 301 302 303 304 304 303 303 302 301 300 299 298 298 299 300 301 301 302 302 301 301 301 300
319 317 317 319 320 320 319 320 322 321 320 322 324 323 321 319 320 321 319 319 324 327 319 313 320 327 324 323 319 309 307 306 303 303 301 300 300 299 299 298 297 297 296 295 294 293 292 292 292 292 292 292 292 292 293 293 293 293 294 295 296 297 298 299 300 301 302 301 301 300 299 298 297 296 296 297 298 299 299 300 300 301 301 301 301 300
320 317 318 319 321 322 320 321 322 320 322 325 323 322 324 321 320 323 320 320 324 322 321 322 320 319 319 322 318 309 308 307 303 303 301 300 300 298 298 298 297 297 297 296 295 293 292 292 292 291 291 291 292 292 292 293 293 292 293 293 294 295 296 297 298 298 299 298 298 297 296 296 295 295 295 296 297 297 298 298 298 299 299 299 300 300
319 317 321 320 319 321 321 323 322 320 322 325 320 318 321 320 321 327 324 322 322 317 321 326 318 317 322 325 318 309 310 309 304 303 301 300 299 298 298 298 297 297 296 295 295 293 292 292 292 291 291 291 291 292 292 292 292 292 292 292 293 293 293 294 296 296 296 296 296 295 295 294 294 294 294 295 296 296 296 296 296 296 297 297 298 298
318 315 321 323 321 322 324 323 322 322 320 319 318 320 324 323 323 328 326 324 324 319 320 322 318 318 323 327 323 315 314 312 306 302 301 300 299 298 298 298 297 297 296 295 293 293 292 292 292 291 291 291 290 291 291 291 291 291 291 292 292 291 291 292 293 294 294 295 295 294 294 293 293 293 293 294 294 293 293 293 293 294 294 295 295 295
317 311 314 320 321 323 323 317 316 319 317 315 319 325 329 328 326 328 327 324 323 321 321 322 319 317 320 328 327 317 313 310 305 302 301 300 299 298 298 298 297 297 297 296 293 292 293 292 292 291 290 290 290 290 290 290 290 290 290 290 290 290 290 291 292 292 293 293 293 292 292 291 291 291 292 291 291 290 290 290 290 290 291 291 292 292
317 313 314 317 317 318 318 314 315 318 318 318 323 325 326 328 328 328 327 324 321 322 325 324 318 314 319 326 320 309 305 305 305 303 300 300 299 298 298 298 297 297 297 297 295 293 292 292 292 291 290 289 289 289 289 290 289 289 289 289 289 288 288 289 289 290 290 290 290 289 289 289 288 288 288 288 287 287 287 287 287 287 288 288 288 289
321 320 318 315 313 315 318 318 317 319 320 320 322 323 324 324 324 325 324 323 322 323 323 319 316 315 318 318 310 303 302 303 305 303 300 299 298 297 298 297 297 297 297 297 297 294 292 292 292 291 290 289 288 288 288 289 289 288 288 288 288 287 287 287 287 288 288 287 287 287 287 287 286 286 286 286 285 285 285 285 286 286 286 286 286 286
325 325 317 313 314 315 318 319 318 321 320 317 318 322 325 322 321 325 324 320 321 324 320 315 314 319 322 315 305 301 300 300 302 302 299 298 297 297 297 297 297 297 297 297 297 294 292 292 292 291 290 289 288 288 288 288 288 288 287 287 287 286 286 286 286 286 286 286 286 286 286 286 286 286 285 285 285 285 285 285 285 285 285 285 285 285
327 329 322 318 318 316 314 315 322 327 318 314 319 320 322 325 325 327 325 323 326 327 320 314 316 324 326 313 302 299 298 298 299 299 298 298 297 297 297 297 297 297 296 297 296 294 292 293 292 291 290 289 287 287 287 287 287 287 287 286 286 286 286 286 286 286 286 286 286 286 286 286 286 286 286 285 285 285 286 285 285 285 285 285 285 285
322 328 326 317 313 313 313 314 322 326 318 314 317 317 319 324 324 323 325 325 326 325 320 318 321 320 314 305 299 299 298 297 298 297 297 297 296 297 297 297 297 297 296 296 296 294 292 292 292 291 290 288 287 287 287 287 287 287 287 287 287 287 286 287 286 286 286 286 286 286 286 286 286 286 286 286 286 286 286 286 285 285 285 285 285 285
320 326 323 313 311 313 315 315 317 321 320 316 314 318 321 321 321 323 324 321 319 321 321 322 321 313 309 306 301 299 299 297 297 296 296 296 296 297 297 297 297 297 296 296 295 293 291 292 292 291 290 289 288 288 288 287 287 287 287 287 287 287 287 287 287 286 286 286 286 286 286 286 286 286 286 286 286 286 286 286 286 286 286 285 285 285
324 326 322 315 315 314 311 313 314 315 318 318 318 320 319 318 320 324 325 322 319 321 322 322 322 317 316 314 303 298 300 298 297 297 296 296 297 297 297 297 297 296 296 296 294 292 291 292 292 291 291 290 289 289 288 288 287 287 287 287 287 287 287 287 287 286 286 286 286 286 286 286 285 285 286 286 286 285 285 285 285 285 285 285 285 285
321 323 322 316 316 315 311 314 316 313 313 318 321 319 317 320 323 322 322 322 321 321 322 324 322 319 320 316 307 303 302 299 297 297 296 297 296 296 296 297 296 296 296 296 294 292 291 292 292 292 291 291 290 289 289 288 287 287 287 287 287 287 287 287 286 286 286 286 286 286 286 285 285 285 285 285 285 285 285 285 284 284 285 284 285 285
319 320 322 316 313 315 314 316 320 317 312 314 316 315 317 320 323 322 320 322 323 320 321 323 321 323 325 319 314 310 302 298 298 297 296 296 296 295 296 296 296 296 295 295 295 292 290 291 293 292 292 291 290 289 288 288 287 287 287 287 287 286 286 286 286 286 286 286 286 286 286 285 285 285 284 284 284 284 284 284 284 284 284 284 284 284
318 318 322 318 314 316 317 318 320 320 314 314 315 315 316 316 319 321 317 319 323 320 321 320 318 325 325 313 311 310 302 298 298 297 296 296 295 296 296 295 295 295 294 294 295 292 290 291 292 292 292 292 290 289 288 288 288 288 287 287 287 287 286 286 286 286 286 286 286 285 285 285 285 285 285 284 284 284 284 284 283 283 283 283 283 284
318 320 323 321 318 319 322 318 316 317 317 319 320 319 320 318 318 320 317 317 318 317 321 320 317 323 319 307 307 308 303 300 298 297 297 296 296 296 296 295 295 294 294 295 294 291 289 290 292 292 292 291 291 289 289 288 288 288 288 288 287 287 287 286 286 286 286 286 286 285 285 285 285 285 285 284 284 284 284 283 283 283 283 283 283 283
319 322 323 322 321 321 319 313 312 315 315 317 318 317 320 320 318 318 317 318 317 316 319 318 318 319 311 305 305 304 301 300 298 297 297 296 296 296 296 295 294 294 294 294 292 289 289 291 291 291 291 291 291 290 289 289 288 288 288 287 287 287 287 287 286 286 286 286 286 286 285 285 285 285 284 284 284 283 283 283 283 283 283 283 283 283
320 322 321 322 323 322 318 312 313 315 313 314 316 315 317 318 318 317 316 318 320 319 318 317 317 316 309 305 305 301 300 300 298 298 298 297 297 296 296 296 295 294 294 293 292 289 289 290 290 291 291 290 290 290 290 289 288 288 288 287 287 287 287 287 286 286 286 286 286 286 285 285 285 285 284 284 283 283 283 282 282 282 282 282 282 282
320 320 321 321 320 321 318 314 315 316 315 315 316 315 314 314 314 313 311 313 316 316 316 315 316 315 309 305 304 301 300 300 298 298 298 299 298 297 296 296 295 295 294 294 293 290 289 289 289 290 290 290 290 290 290 290 288 288 288 287 287 287 287 287 287 286 286 286 286 286 286 285 285 285 284 283 283 283 282 282 282 282 281 281 281 281
318 319 320 319 318 318 318 317 316 316 314 313 313 312 311 310 311 311 311 313 313 313 315 315 315 313 308 304 305 303 301 302 300 299 299 300 299 298 297 296 296 295 294 294 293 292 289 288 288 290 290 290 290 290 290 290 288 288 288 288 288 287 287 287 287 287 287 286 286 286 286 286 285 285 284 283 283 282 282 282 282 281 281 281 281 280
318 317 317 318 317 316 316 316 313 313 314 313 312 311 309 308 308 309 310 311 311 311 310 310 311 311 307 306 307 306 303 304 304 302 300 300 300 299 298 296 295 294 293 292 292 292 290 288 288 289 290 290 289 289 289 289 288 288 288 288 288 288 287 287 287 287 287 287 286 286 286 286 286 285 284 283 282 282 282 282 281 281 281 280 280 280
316 314 314 315 315 314 314 313 310 310 313 314 312 311 310 308 306 307 308 308 308 308 307 306 306 306 306 306 306 307 305 304 305 304 303 302 300 299 297 296 295 293 291 291 291 292 292 290 287 287 289 289 289 289 289 288 289 288 288 288 288 288 288 287 287 287 287 287 286 286 286 286 285 285 284 283 282 282 281 281 281 280 280 280 279 279
316 315 312 312 313 312 310 310 307 306 308 309 308 309 309 307 305 305 305 305 305 305 304 303 303 304 304 302 302 305 306 306 307 306 303 302 300 299 298 297 295 293 291 291 291 291 292 290 287 286 288 289 289 289 289 289 289 289 289 289 288 288 288 288 287 287 287 286 286 286 285 285 285 285 284 282 281 281 281 280 280 280 279 279 279 278
313 313 311 310 312 311 308 307 306 304 305 306 305 305 305 304 303 303 304 303 302 302 302 302 302 302 301 301 302 304 305 304 305 303 301 301 301 301 300 298 295 292 290 291 291 291 290 288 286 287 288 288 289 289 289 289 289 289 289 289 288 288 288 288 287 287 287 286 286 285 285 285 285 284 283 282 281 280 280 279 279 279 278 278 277 277
309 311 308 306 309 309 305 304 305 304 304 304 303 303 301 301 302 302 302 302 302 302 302 301 302 302 301 302 303 304 303 301 301 302 303 304 304 303 301 298 295 292 291 291 290 290 289 286 286 287 287 288 289 289 289 289 289 289 289 289 289 288 288 288 288 287 286 286 285 285 285 285 285 284 282 281 280 279 279 278 278 277 277 277 276 276
308 309 305 303 308 308 301 301 303 302 302 302 302 301 299 299 300 300 300 301 301 301 300 300 301 301 301 302 303 303 302 301 301 302 303 304 304 303 303 301 297 293 292 291 291 291 290 287 285 286 287 289 290 290 289 290 290 289 290 289 289 288 288 288 287 287 286 286 285 285 284 284 284 283 281 280 279 279 278 277 277 276 276 276 275 275
306 307 306 305 308 305 299 300 303 302 302 302 300 299 298 298 298 298 299 300 300 299 300 301 300 300 302 303 302 302 303 302 302 301 300 300 300 301 302 302 299 296 294 293 293 293 291 287 286 287 289 290 290 290 290 290 290 290 290 289 289 288 288 287 287 286 285 285 284 284 284 283 282 281 280 279 278 277 277 276 276 275 275 275 274 274
304 306 306 304 306 304 299 299 302 301 301 301 299 300 300 298 298 298 298 299 299 299 301 301 300 301 302 303 302 302 302 301 300 299 297 298 300 299 298 298 299 299 296 293 293 291 288 287 288 289 290 290 290 290 290 290 289 289 289 289 288 288 287 287 286 285 284 284 283 283 282 281 280 279 278 277 277 276 275 275 275 274 274 274 273 273
304 305 305 303 304 302 298 298 301 301 300 299 298 300 300 298 298 299 298 298 298 298 299 299 300 300 301 301 302 301 298 296 295 294 294 296 298 298 296 296 297 297 295 295 293 289 286 288 289 289 289 290 290 290 289 289 288 288 288 288 287 287 286 285 285 284 283 283 281 280 280 279 278 277 276 275 275 274 274 274 273 273 272 272 271 271
303 304 304 302 301 300 298 299 301 300 298 298 297 297 296 296 297 297 298 298 298 297 297 298 299 298 299 299 298 295 293 292 291 292 294 295 295 294 294 295 295 293 292 292 291 288 288 289 290 290 290 290 289 289 288 288 288 287 287 287 286 286 285 284 284 283 282 280 279 278 278 277 276 275 274 274 273 273 273 272 271 270 270 270 270 269
302 302 303 302 300 300 300 300 300 298 297 297 297 295 295 297 299 299 298 299 299 298 297 298 299 299 297 295 292 291 292 291 290 292 294 294 294 293 290 290 292 291 289 289 289 289 290 290 290 290 290 289 289 288 288 287 287 287 286 285 285 284 284 283 282 281 279 278 277 276 276 275 274 273 273 272 272 271 271 270 269 269 268 268 268 267
300 301 302 302 300 299 299 298 298 297 296 296 296 296 296 297 300 301 298 298 300 299 298 299 300 300 297 293 290 291 292 291 292 294 294 293 294 294 289 287 288 289 289 289 290 290 290 290 290 290 289 288 288 287 286 286 286 285 285 284 283 283 282 281 279 278 277 276 275 275 274 273 272 272 272 271 271 270 269 268 268 268 267 266 266 266
299 299 300 300 300 299 298 298 298 296 296 297 298 297 294 294 299 300 297 298 300 298 296 297 298 300 300 294 291 292 292 292 294 295 294 293 293 292 291 289 288 289 290 290 290 290 290 289 289 288 288 287 286 285 284 284 284 283 283 282 282 281 279 278 277 276 275 275 274 273 272 272 271 271 271 270 269 268 267 267 267 267 266 265 265 264
299 299 299 299 299 298 297 297 297 296 297 298 298 295 292 293 297 299 297 297 299 296 295 296 297 300 301 295 292 292 293 293 294 294 293 292 289 287 289 289 288 289 290 289 289 289 288 288 288 287 286 285 284 283 282 282 282 282 281 280 279 278 277 275 275 274 274 273 272 271 271 271 271 270 270 269 268 267 266 266 266 266 265 264 264 264
297 298 298 298 298 298 298 297 296 296 298 298 296 295 293 294 296 296 296 297 297 295 295 297 299 300 299 294 291 292 293 293 293 292 292 291 290 288 287 288 288 289 289 288 288 288 287 287 286 285 284 283 282 281 280 280 280 280 279 278 277 276 275 274 273 273 272 272 271 270 270 270 269 269 268 267 267 266 265 265 265 265 264 264 263 263
296 297 297 298 298 297 297 298 297 297 299 299 295 292 292 294 295 296 297 298 298 297 294 294 297 298 296 293 291 291 291 291 290 291 291 292 292 290 287 286 287 287 287 287 287 287 287 286 284 283 282 281 280 279 279 279 279 278 277 276 275 274 273 272 272 272 271 271 270 269 269 269 268 267 267 266 265 265 265 265 265 264 264 263 263 262
296 296 295 296 298 297 297 297 296 296 296 295 293 292 292 295 299 300 298 295 296 297 296 294 294 294 293 292 290 289 290 290 290 290 290 290 290 288 286 286 286 286 287 287 286 286 286 284 282 281 280 279 279 278 278 278 277 276 276 275 274 273 272 271 271 271 270 269 269 269 269 268 267 266 265 265 264 264 264 264 264 263 263 263 262 262
296 297 296 296 296 296 296 296 296 297 295 293 294 295 294 295 298 301 299 296 294 295 297 296 294 291 290 292 292 289 289 289 289 289 289 289 288 287 285 284 285 286 286 286 285 285 285 283 281 280 279 278 278 277 277 276 276 275 275 274 272 271 270 270 270 270 269 268 268 268 268 266 265 265 264 264 264 263 263 263 263 263 262 262 262 262
296 296 297 297 296 295 296 298 298 297 294 292 294 296 296 294 295 296 297 297 296 295 294 294 295 292 290 290 292 291 290 289 289 289 289 288 288 287 285 284 285 285 285 285 285 284 283 282 281 279 277 277 276 276 275 275 274 274 272 271 270 270 269 269 269 268 268 267 267 267 266 265 264 264 264 263 263 263 263 263 262 262 262 262 261 261
295 292 292 295 296 293 293 296 295 293 292 292 292 294 295 294 294 294 295 295 295 295 293 292 293 294 291 290 290 291 290 290 289 289 289 288 288 286 283 283 284 284 284 283 283 282 282 281 279 277 276 275 275 274 274 273 272 272 271 270 270 269 269 268 268 267 267 267 266 266 265 264 264 263 263 263 263 262 262 262 262 262 262 261 261 261
294 291 289 293 295 293 292 293 292 291 293 293 291 292 292 292 292 292 292 293 293 293 293 292 292 292 291 290 290 291 291 290 290 290 289 288 288 286 282 281 283 283 283 283 282 280 279 278 277 276 275 274 273 272 271 271 270 270 270 269 269 268 268 267 267 266 266 266 265 265 264 263 263 263 262 262 262 262 262 262 262 261 261 261 261 261
293 292 292 292 292 291 292 292 291 291 292 291 290 291 291 291 291 290 290 291 291 291 291 290 289 290 291 290 289 290 290 289 289 289 288 287 287 285 281 281 282 282 282 281 280 278 277 277 276 275 274 273 272 271 270 270 269 269 269 269 268 267 267 266 266 265 265 265 264 264 263 263 262 262 262 262 262 262 262 262 262 261 261 261 261 261
292 292 293 293 291 291 291 291 290 290 291 290 290 290 289 290 290 290 289 289 289 289 290 288 286 287 288 289 289 289 289 289 288 288 288 288 287 284 281 282 282 281 280 279 278 277 276 276 275 274 273 271 271 269 269 269 269 269 269 268 267 266 266 265 265 264 264 264 263 263 262 262 262 262 261 261 261 261 261 262 261 261 262 262 262 263
292 291 292 292 292 292 291 291 291 291 291 291 290 290 290 289 289 288 289 289 288 288 289 289 287 286 285 286 287 287 289 289 287 286 287 287 284 282 282 282 280 279 278 277 276 275 275 274 273 272 271 270 269 268 268 269 269 269 268 267 266 265 265 265 264 263 263 263 263 262 262 261 261 261 261 261 261 261 261 261 262 262 262 263 264 265
291 291 291 291 291 291 291 291 291 290 290 291 291 290 290 290 289 289 289 289 288 288 288 288 289 288 287 285 284 284 288 288 285 284 286 286 282 281 283 282 279 277 276 275 274 274 273 272 271 270 269 268 268 267 267 268 269 268 267 266 266 265 265 264 263 262 262 262 262 261 261 261 261 261 261 260 260 260 260 260 261 263 263 263 263 264
Wind_Speed
3 4 2 5 7 8 10 11 11 8 4 3 3 2 5 5 6 7 7 7 2 2 6 7 6 6 9 11 8 6 4 7 7 7 6 5 5 5 6 6 6 7 6 10 16 20 22 23 25 26 27 28 29 29 29 29 29 29 28 27 28 25 22 21 20 20 19 19 18 17 17 17 17 16 14 15 15 14 13 12 12 11 11 10 9 9
4 5 7 10 11 11 10 9 7 5 3 2 3 4 5 5 7 7 6 7 1 3 6 4 3 6 10 9 5 6 5 5 4 7 7 6 6 5 6 6 6 5 5 10 15 19 22 23 25 26 27 28 28 29 29 30 29 29 29 29 28 26 24 24 23 21 21 20 19 18 18 17 16 17 17 17 16 14 13 12 12 11 10 9 9 10
2 4 12 13 8 5 5 4 5 4 4 3 2 2 5 4 4 7 6 6 2 2 4 3 2 7 10 5 6 7 5 5 4 7 6 6 7 5 5 5 5 5 6 7 10 16 21 22 24 26 26 27 27 28 29 29 29 29 29 28 27 26 25 25 23 23 23 21 19 18 18 16 17 18 18 17 17 15 14 14 13 12 10 8 7 7
3 6 13 11 5 3 6 5 4 2 1 2 2 2 5 3 2 4 5 5 3 1 3 3 3 6 8 2 7 7 5 7 7 9 8 6 6 5 5 5 5 6 6 7 8 13 17 20 24 26 26 26 27 29 29 29 29 29 28 27 26 25 24 24 23 23 23 22 21 21 20 18 18 18 16 16 17 16 17 18 17 16 14 12 10 8
7 8 6 4 6 6 6 7 4 2 2 4 6 5 5 5 6 6 4 5 4 4 2 2 5 5 7 4 3 5 5 7 7 9 9 7 6 5 6 6 6 5 5 6 7 9 14 18 21 23 23 24 27 28 28 28 28 28 27 26 25 25 24 23 22 21 20 20 19 19 18 17 18 18 19 19 19 18 17 18 18 17 17 17 15 14
9 6 3 4 5 6 6 7 5 5 3 4 5 9 9 8 7 6 3 4 4 5 3 2 3 5 5 3 3 4 4 6 6 7 7 6 5 5 6 6 5 5 5 5 7 8 12 15 18 20 21 23 27 27 26 27 27 28 28 27 26 26 25 24 23 20 19 19 19 18 19 20 20 21 22 22 21 20 18 17 14 13 14 15 16 16
6 5 4 6 6 6 6 6 5 7 4 3 4 7 8 6 4 5 2 2 1 4 4 3 0 6 5 2 4 6 5 6 5 6 6 4 4 4 4 4 4 4 5 5 7 8 11 13 15 17 20 24 26 25 25 27 28 29 29 28 28 28 27 25 24 22 21 22 22 22 23 23 22 21 20 20 20 20 18 16 15 14 13 12 12 12
3 3 4 6 6 6 5 5 5 8 7 4 5 4 5 5 4 3 4 3 2 3 5 4 2 4 5 5 5 8 8 5 5 5 4 3 3 4 4 4 4 4 4 5 5 7 10 12 13 16 21 24 24 23 26 28 28 29 29 29 29 28 28 26 25 24 24 25 24 24 24 24 23 22 21 19 18 18 16 16 17 16 15 14 12 11
1 2 4 7 6 5 5 5 6 9 5 6 5 5 6 5 4 4 6 2 1 2 5 3 2 2 6 5 1 8 7 4 5 5 4 4 4 4 4 4 3 3 4 4 4 6 9 12 14 17 21 22 22 23 25 26 27 27 28 28 28 29 28 27 27 28 28 27 27 26 26 26 25 23 22 21 20 20 19 19 19 18 17 16 14 13
1 2 5 7 5 6 5 3 5 8 5 4 4 6 6 5 5 5 5 3 3 2 5 5 4 2 5 6 2 4 5 5 5 5 5 5 4 4 4 4 3 3 4 4 5 7 10 12 15 18 20 21 21 22 23 24 25 26 27 27 28 28 28 27 28 29 30 29 29 29 29 28 27 26 25 25 26 26 25 25 25 23 22 20 18 17
3 1 2 5 4 5 5 2 1 4 3 4 6 6 6 5 5 4 2 4 3 4 6 8 9 6 4 5 2 2 2 4 7 6 6 6 5 4 4 3 3 3 3 4 5 8 11 13 15 17 19 19 19 21 22 23 24 25 26 26 28 28 27 27 28 29 30 30 30 30 29 29 28 27 27 28 29 29 29 29 28 27 27 26 25 24
4 1 1 2 3 4 6 4 3 3 3 5 5 4 3 4 4 4 4 4 1 6 6 5 7 6 5 5 2 3 5 2 8 11 11 10 7 6 5 4 3 3 3 4 4 6 9 12 13 15 17 18 19 20 22 22 23 24 24 25 27 27 27 27 27 29 30 30 30 29 29 29 28 28 28 29 29 28 28 29 28 28 28 28 28 28
3 4 3 2 1 4 6 4 3 5 5 5 4 5 3 2 3 3 3 0 3 7 5 3 5 3 6 4 3 5 6 6 5 10 13 12 10 7 6 5 4 3 3 3 3 4 6 9 10 13 15 17 19 19 20 20 21 22 22 24 26 26 26 26 27 28 29 30 30 29 28 28 27 27 27 27 27 27 27 27 27 27 27 27 28 28
3 5 1 1 2 2 7 5 2 1 2 4 5 5 4 2 1 3 4 1 3 6 4 3 4 2 5 2 3 5 6 6 0 8 9 9 9 7 6 5 4 4 3 3 3 3 5 7 9 11 14 16 17 17 18 19 19 21 21 23 25 25 24 25 26 27 28 29 28 27 27 26 25 26 26 25 25 24 24 24 24 25 25 25 25 25
2 5 2 5 2 3 7 6 5 5 4 4 4 5 5 5 4 4 4 3 4 5 4 1 3 3 3 2 3 4 4 4 5 8 7 7 6 5 5 5 4 4 3 3 3 3 5 7 8 11 13 15 16 17 18 18 18 19 20 21 23 23 23 23 24 25 26 26 26 25 25 24 24 23 23 23 22 22 22 22 22 22 22 22 22 22
3 5 6 2 0 6 7 4 5 7 2 2 3 5 3 4 5 2 3 5 4 2 3 2 2 3 3 2 3 2 3 5 6 6 8 7 5 5 5 5 5 4 4 3 3 3 5 8 9 11 13 14 15 16 16 16 16 17 18 19 20 20 19 20 21 22 23 23 23 23 23 22 21 21 20 20 20 20 20 19 20 20 20 20 20 20
2 4 5 2 1 5 7 5 4 4 3 2 3 3 4 4 6 2 3 1 3 2 4 2 2 2 1 2 2 2 3 4 4 5 7 6 6 6 6 5 5 5 5 4 4 5 7 9 10 11 12 13 13 13 13 14 14 15 15 16 16 16 16 16 17 19 19 20 21 22 21 21 20 19 18 17 17 17 17 18 18 18 19 20 20 21
4 3 5 2 3 3 3 4 3 1 4 5 3 5 3 2 4 3 1 2 1 3 4 2 4 4 1 2 1 1 2 4 4 5 6 6 7 7 7 6 5 5 5 5 6 7 10 11 11 12 12 12 11 11 11 12 13 13 14 14 14 14 14 15 15 16 16 18 19 19 19 18 18 17 16 15 15 16 16 18 19 19 20 20 21 21
4 2 5 2 4 1 2 4 2 3 1 5 3 3 3 2 1 1 2 2 2 4 3 3 6 5 4 4 3 6 9 9 7 7 7 8 8 8 7 6 6 6 6 6 6 7 10 13 13 13 14 13 12 12 12 12 12 13 13 13 13 13 13 13 14 14 15 15 16 15 15 16 15 15 15 13 13 15 16 18 20 21 21 21 22 22
2 2 3 1 1 1 3 3 3 3 1 2 0 1 1 2 3 2 2 2 3 4 4 5 5 4 5 5 8 11 13 12 11 9 9 10 9 8 7 7 7 7 7 7 7 7 10 15 16 15 16 16 14 13 13 13 13 12 12 12 12 12 12 13 13 14 14 14 13 12 12 13 14 14 15 14 14 15 15 16 19 20 21 21 22 22
1 2 3 2 2 1 2 3 6 6 3 2 2 2 1 1 1 1 2 2 2 3 4 5 6 5 4 3 7 10 10 12 14 12 10 9 8 8 8 9 9 8 8 8 7 7 12 15 16 17 17 16 15 14 13 13 12 11 10 10 10 10 11 12 13 13 13 13 12 11 11 12 13 15 15 15 16 16 16 16 18 20 20 21 22 23
2 2 3 1 1 3 4 3 3 6 5 4 4 4 4 3 2 2 4 1 2 3 4 4 7 6 4 1 2 5 7 10 12 11 9 9 10 10 10 11 10 9 8 8 7 8 12 15 16 17 17 17 16 15 13 12 11 11 10 9 8 8 9 10 11 12 12 12 12 12 12 13 14 16 17 17 18 18 18 18 19 20 21 22 23 24
2 3 2 2 3 5 3 2 1 3 4 4 2 2 3 4 4 4 6 3 1 1 1 2 5 6 3 2 3 4 6 9 10 10 10 10 11 12 12 10 9 8 8 7 7 10 13 15 16 17 17 17 16 15 14 12 11 10 9 8 7 7 7 7 8 9 10 11 12 13 14 14 15 17 18 19 20 20 20 20 21 21 22 23 24 24
2 3 1 3 3 3 3 4 5 3 4 2 2 1 4 3 3 4 5 3 2 2 1 1 5 5 2 2 2 2 2 6 8 9 10 9 10 10 10 9 8 8 7 6 7 9 13 15 16 17 17 16 15 14 13 12 10 9 7 6 6 6 6 5 5 6 8 9 10 12 14 15 16 18 19 20 21 22 22 22 23 23 23 24 25 26
0 1 2 1 3 5 4 3 4 4 0 2 2 1 2 3 5 3 1 2 1 3 4 4 7 5 0 3 4 3 3 5 6 7 7 7 8 8 8 8 8 7 6 6 6 7 10 13 14 15 15 15 14 13 13 13 10 8 6 5 5 5 5 4 3 4 5 6 8 10 13 15 18 20 21 22 22 23 23 24 24 25 25 27 28 29
2 2 3 3 6 8 6 4 2 1 1 1 1 2 2 4 6 3 1 2 2 3 5 5 7 3 2 3 3 2 2 5 6 6 5 6 7 7 7 7 7 6 7 7 7 7 8 10 12 15 16 16 15 13 13 14 11 8 6 5 3 3 3 3 2 3 5 6 8 10 13 15 18 21 22 22 22 23 23 24 25 26 27 28 30 32
3 2 4 7 9 9 6 5 4 3 3 2 2 4 5 4 5 5 3 3 3 2 3 7 5 2 3 3 4 5 5 5 7 7 7 7 7 8 8 7 6 6 6 6 7 6 7 8 12 16 17 17 16 14 14 14 12 10 8 6 5 3 0 1 3 4 6 8 10 12 14 16 18 22 24 24 23 23 23 24 25 26 27 29 31 33
4 3 5 7 8 6 3 4 4 3 4 5 4 5 7 5 6 6 4 4 4 2 6 8 4 3 8 9 7 7 7 7 8 8 8 8 8 8 6 5 6 6 5 6 6 7 8 8 11 15 17 17 17 16 15 14 13 12 10 8 6 5 4 4 4 6 7 9 10 12 13 15 17 21 24 25 24 24 24 25 27 28 29 30 32 34
5 4 4 4 5 5 2 4 4 3 3 4 6 8 10 7 6 7 7 8 7 6 9 9 5 7 10 10 7 7 8 9 9 9 8 7 7 6 5 6 7 7 7 7 8 9 9 9 10 14 17 17 18 18 17 16 15 14 12 10 8 8 8 8 6 7 8 9 10 11 13 14 17 21 24 25 25 25 26 27 28 30 31 33 34 35
3 3 3 4 4 4 2 4 4 4 3 4 7 10 10 8 6 7 9 11 9 8 11 11 10 11 11 9 7 7 7 8 7 7 5 5 6 6 7 7 7 7 8 9 10 10 9 9 12 14 16 18 19 20 20 19 17 16 15 14 13 11 11 10 8 8 9 10 11 12 13 15 18 22 25 26 25 26 27 28 30 31 33 35 36 37
1 1 1 3 2 5 1 4 4 3 3 4 9 11 8 4 5 10 11 9 6 8 11 10 10 12 11 7 6 5 3 4 5 6 6 5 5 6 6 7 7 8 9 10 10 9 7 8 11 14 16 19 21 22 22 21 19 18 18 17 16 13 12 11 9 9 10 11 11 13 15 17 21 25 27 26 26 27 28 29 31 33 35 36 37 37
1 1 1 3 2 5 2 3 4 2 3 5 13 14 9 6 8 10 7 6 8 10 10 8 7 9 9 5 3 3 3 5 6 7 6 4 4 5 6 7 7 8 9 9 8 7 7 8 11 14 18 21 23 23 22 22 21 21 21 20 18 14 12 11 10 10 11 12 12 14 16 20 24 26 27 27 27 28 29 31 33 34 36 36 37 37
3 3 1 3 3 4 4 2 1 5 5 7 11 10 10 10 11 9 6 8 10 8 6 7 7 7 6 4 4 5 5 6 6 6 5 4 5 6 6 7 7 8 8 8 8 7 8 10 14 17 21 23 24 24 23 23 23 23 23 21 17 13 11 10 10 11 11 11 13 15 18 21 24 25 26 26 27 29 31 33 34 35 35 36 36 36
3 5 3 3 3 3 4 0 4 1 5 8 4 4 8 10 11 10 10 11 10 7 5 6 6 5 4 4 6 9 8 6 5 5 5 5 5 6 6 6 6 7 7 7 6 7 10 13 16 19 22 23 25 24 24 23 23 22 19 16 13 11 10 10 10 10 11 11 14 17 19 21 22 23 24 26 27 30 31 32 33 33 33 35 35 36
4 5 3 2 3 2 2 3 1 7 9 5 3 1 5 7 7 8 8 9 9 8 7 6 7 7 7 7 8 7 6 3 3 4 5 5 6 6 5 6 6 6 5 5 5 8 12 15 17 19 21 22 24 24 23 21 19 16 13 12 12 11 10 10 10 10 12 13 16 17 19 20 21 22 24 26 28 29 30 30 31 32 32 33 34 35
6 4 2 2 2 1 2 4 6 7 6 8 7 2 2 2 2 2 5 8 9 9 7 7 9 9 8 7 6 3 3 1 1 2 5 5 4 5 6 6 6 6 6 7 8 11 13 15 15 16 16 17 19 19 18 16 15 14 13 13 12 11 10 10 10 11 13 15 15 16 17 19 21 23 25 26 27 28 28 29 30 30 30 32 33 34
6 4 2 2 3 2 3 5 4 4 8 12 9 3 3 3 5 5 3 8 8 6 7 7 8 9 6 4 3 2 2 2 2 4 5 6 6 6 7 7 7 7 9 10 11 12 13 13 13 13 13 14 15 15 15 15 16 15 14 13 11 11 10 10 11 12 14 14 15 16 17 19 21 23 25 25 26 27 28 28 29 29 29 30 33 33
5 5 4 4 3 3 3 4 4 3 7 11 7 3 2 3 6 7 2 5 7 6 7 8 7 6 3 2 3 2 3 1 3 5 5 6 6 6 7 9 9 9 10 11 11 12 13 14 13 13 14 15 15 16 16 16 16 15 13 12 10 10 10 11 11 12 13 13 15 17 18 20 21 22 23 24 24 26 26 27 28 28 28 29 31 33
2 2 4 4 3 2 4 5 5 5 8 8 6 5 3 5 6 7 3 5 7 6 7 7 6 6 5 6 5 4 4 3 6 6 5 6 7 6 7 8 9 10 11 12 12 12 13 13 12 13 16 17 17 16 15 15 14 13 11 9 9 9 10 10 10 11 12 14 16 18 19 19 20 20 21 23 23 24 25 26 27 28 28 28 30 32
3 2 3 4 6 6 6 5 4 5 6 5 5 4 3 4 6 8 1 8 6 4 7 8 7 7 7 7 6 6 6 6 6 6 6 7 8 8 8 8 9 10 11 11 10 10 10 11 13 16 17 17 16 15 14 12 11 9 8 7 8 9 9 10 10 11 13 15 17 18 18 17 18 18 20 21 22 23 23 25 26 27 28 29 30 32
2 2 3 6 8 9 8 6 4 4 5 5 5 6 5 3 6 3 6 7 5 6 7 8 8 8 7 7 6 6 7 8 7 5 4 5 7 9 10 11 10 10 10 10 10 9 9 12 16 17 17 16 15 14 12 10 8 7 7 7 8 8 9 10 11 13 14 16 17 17 17 16 17 18 18 19 21 23 23 24 25 27 28 30 31 32
2 1 2 4 6 6 6 5 4 5 5 6 4 3 4 4 1 5 7 3 6 8 7 7 8 7 7 9 8 8 8 8 7 4 3 5 7 8 9 10 10 10 11 10 9 9 12 15 16 16 16 15 14 12 10 8 7 7 7 7 7 9 10 11 12 14 15 16 16 16 16 16 16 17 18 18 19 21 24 24 24 26 28 30 31 32
6 4 3 4 4 3 3 4 4 6 5 9 9 1 1 4 6 5 3 2 5 7 7 7 8 7 7 8 8 8 8 8 7 6 6 6 6 8 10 11 11 12 12 10 10 13 16 17 17 17 16 14 13 11 9 8 7 7 7 7 8 10 11 12 13 14 15 16 16 16 16 16 17 17 17 18 19 20 23 25 25 26 28 29 31 32
4 5 4 5 3 4 4 6 5 4 4 9 10 5 6 9 7 4 4 4 4 4 5 6 7 7 8 8 8 8 9 8 8 8 7 7 7 8 10 12 13 14 12 11 12 15 18 19 19 18 16 14 12 10 9 8 7 7 7 8 9 10 11 12 13 14 15 15 16 16 16 16 17 17 17 18 18 20 22 24 26 27 27 28 28 30
6 6 5 4 3 4 5 6 5 2 3 7 8 7 9 10 7 6 6 5 4 4 5 5 6 7 8 9 9 8 7 8 9 8 8 8 8 9 10 14 15 15 13 13 14 16 19 20 20 19 16 13 11 9 9 8 8 7 8 9 10 11 12 12 13 14 15 15 16 16 17 17 17 17 17 17 18 20 22 24 26 27 27 28 27 28
5 4 3 1 1 2 3 4 3 2 2 6 9 7 7 7 5 6 6 5 5 6 5 5 7 8 8 9 8 7 7 9 9 9 9 8 8 10 12 14 13 11 12 14 16 18 19 19 18 17 15 12 11 10 9 9 8 8 8 9 10 11 12 13 13 14 15 15 16 16 17 18 18 18 18 18 18 20 21 23 25 27 28 28 27 27
3 3 3 2 2 2 2 3 5 5 5 7 9 9 7 7 5 6 6 6 6 7 7 7 8 9 8 8 8 8 10 10 10 10 9 8 9 9 10 11 11 13 15 17 19 20 20 18 17 15 13 12 11 10 10 8 7 8 9 10 10 11 12 13 13 14 15 15 16 17 17 18 19 19 19 20 20 21 22 23 24 26 28 28 28 27
2 3 3 4 5 4 4 6 6 6 5 6 7 7 6 8 8 6 6 7 7 7 7 8 8 8 7 7 9 10 11 10 10 10 9 8 8 8 9 11 14 15 15 17 19 20 19 17 15 13 12 11 10 10 10 8 7 8 9 10 10 10 11 12 13 14 15 16 16 17 17 18 19 20 21 21 21 21 23 24 24 26 27 28 28 28
2 2 3 4 4 3 5 8 5 2 6 8 8 8 8 8 9 8 7 7 7 8 8 8 8 9 9 9 10 10 11 11 10 10 10 8 7 8 11 13 15 16 16 18 19 19 17 15 13 11 10 10 9 9 9 8 7 8 9 10 9 10 11 12 13 14 15 16 17 18 18 19 19 20 21 22 23 23 23 24 24 25 28 29 27 27
2 4 3 3 3 4 7 9 6 3 5 9 10 11 11 10 9 9 9 8 8 10 10 10 10 10 11 12 11 9 9 11 10 9 9 8 8 11 14 14 14 15 16 18 17 16 14 12 10 10 9 8 8 8 9 8 7 8 9 9 9 9 11 12 13 15 16 16 17 18 19 19 20 20 21 22 23 24 25 25 23 23 26 28 28 26
6 8 6 5 6 8 9 9 7 6 7 9 9 9 9 7 7 9 11 11 11 11 11 10 11 11 10 12 14 13 10 10 11 10 8 8 12 15 15 15 15 16 18 18 16 14 12 10 9 9 8 8 8 8 9 9 8 7 8 9 8 9 10 11 13 15 16 17 18 19 19 20 20 20 20 21 21 23 25 28 29 28 26 25 26 27
Wind_Direction
103 106 171 211 211 204 209 208 209 225 224 232 256 251 244 251 269 266 270 276 200 202 259 244 247 265 270 273 289 323 19 90 113 107 94 89 80 73 72 64 56 55 45 37 40 43 45 47 50 50 51 53 54 54 57 60 62 63 67 69 68 67 69 69 68 69 71 71 69 68 67 64 60 59 60 60 55 50 47 44 44 45 43 35 25 12
91 139 217 223 210 208 218 216 213 242 256 238 237 260 266 247 261 269 269 285 244 188 270 270 260 271 263 271 329 357 23 57 100 113 104 98 90 75 72 64 54 52 39 39 39 40 43 47 50 50 51 52 52 52 55 59 61 64 67 68 68 69 70 71 71 74 75 74 73 71 69 65 62 58 57 59 58 56 54 48 43 38 34 30 24 17
110 198 237 232 212 223 260 231 188 215 222 214 208 236 259 253 278 285 280 303 355 177 272 324 307 273 272 290 28 27 47 50 53 89 92 92 91 75 68 62 51 50 37 35 35 35 39 43 50 51 49 50 52 53 56 60 62 65 66 67 69 71 72 73 75 78 79 80 81 80 77 74 71 66 63 63 61 58 56 52 47 43 35 27 21 13
178 234 242 230 181 200 262 259 203 203 235 206 212 224 251 265 298 278 284 316 348 222 264 327 318 284 278 301 59 37 54 68 56 68 66 62 75 68 65 58 47 51 40 35 33 31 35 40 47 49 48 49 52 53 54 57 60 62 65 68 71 73 75 77 80 83 86 88 88 87 85 84 81 76 72 68 61 58 58 56 53 48 42 36 30 22
218 238 238 187 153 173 227 267 247 219 283 244 221 217 238 247 224 232 281 325 333 339 341 334 324 299 267 257 84 56 60 71 62 70 67 54 59 60 63 58 46 48 42 40 38 27 32 38 44 49 51 53 53 52 52 54 58 61 66 70 74 77 78 79 83 88 93 93 91 90 86 81 76 68 61 56 52 53 55 55 54 52 49 46 42 35
242 237 126 138 168 163 191 253 237 186 232 283 235 213 221 231 230 241 311 8 5 334 328 8 325 295 285 283 151 137 87 70 60 67 72 59 53 55 60 59 48 46 44 46 45 33 34 40 46 49 52 56 57 55 56 59 62 64 66 70 74 77 79 80 82 86 91 89 84 82 76 68 62 55 50 48 48 49 50 50 52 53 50 49 48 44
248 231 174 176 177 152 175 241 229 164 158 275 248 208 210 214 229 248 229 88 105 259 295 48 283 274 298 296 189 159 116 92 79 65 72 65 56 64 65 62 53 46 44 46 45 40 40 43 47 49 50 56 59 60 64 66 66 66 66 68 72 75 78 81 83 86 87 86 82 79 76 69 64 58 52 53 55 54 52 53 54 55 52 47 44 40
220 219 212 195 174 157 183 242 220 159 139 237 240 162 153 169 193 212 154 147 209 250 319 18 107 267 281 263 198 144 120 103 99 85 84 88 81 84 78 70 65 53 49 49 46 41 43 45 48 52 55 60 64 66 69 70 68 68 67 68 71 74 77 81 86 88 87 86 84 80 78 73 68 63 58 58 58 55 53 52 52 54 56 52 46 38
185 157 215 192 175 188 207 232 196 158 154 240 215 133 113 130 144 113 105 119 349 2 306 293 125 266 270 274 184 133 140 154 152 145 138 137 131 117 104 93 80 68 62 59 59 51 49 50 53 59 63 65 68 69 71 73 74 74 72 72 73 73 74 79 84 87 86 85 84 81 78 74 70 69 66 63 60 57 54 50 47 47 50 50 47 41
265 198 193 156 160 205 206 232 187 164 185 219 147 96 64 70 81 75 93 96 35 345 251 210 168 225 267 286 293 148 171 189 171 164 162 159 157 143 127 119 103 80 69 65 67 65 61 61 64 68 70 70 71 73 75 76 77 78 77 76 76 73 73 76 80 82 82 81 80 77 75 72 69 67 65 63 60 57 55 53 49 46 45 45 44 41
298 304 162 145 174 191 157 109 160 165 158 128 94 56 32 29 41 48 57 77 56 285 248 203 188 192 255 284 248 175 231 188 161 159 173 170 159 156 148 135 123 103 90 80 71 71 72 73 73 74 74 72 74 78 79 78 77 78 79 79 78 76 75 76 77 80 79 78 77 74 72 69 66 63 61 59 56 53 53 52 49 48 47 46 45 43
329 338 240 232 180 135 109 85 25 14 67 96 85 65 47 345 9 24 358 47 120 256 259 217 185 175 229 266 276 300 315 238 173 169 172 168 160 162 159 151 149 138 114 95 79 75 76 75 74 74 72 71 73 76 77 78 79 80 80 81 81 78 77 77 77 79 79 78 77 75 73 70 67 65 62 60 56 53 52 50 48 47 45 44 43 42
309 235 252 292 207 136 115 95 13 4 38 82 100 94 84 322 348 358 307 283 215 252 257 182 146 173 236 252 319 316 323 304 217 169 162 160 157 159 158 161 160 146 125 108 97 83 78 74 72 73 72 71 72 73 77 80 82 82 82 83 82 79 78 79 79 79 79 78 78 76 75 73 71 68 66 63 60 56 53 51 48 46 43 41 40 39
299 291 299 140 265 178 143 150 195 242 131 138 146 134 127 145 192 252 260 265 257 268 277 160 140 243 266 291 338 313 316 314 217 132 141 146 146 153 156 159 155 142 139 128 113 92 84 82 80 79 77 76 77 78 81 83 85 86 86 86 85 83 82 82 82 81 80 79 79 78 76 74 71 69 66 64 61 58 55 52 49 46 44 41 39 38
199 300 235 176 227 185 171 182 165 142 154 175 156 138 150 160 172 208 218 210 239 275 301 231 160 199 230 278 315 304 328 2 73 103 112 118 129 140 137 144 149 146 154 139 113 104 102 100 95 92 89 87 87 86 87 88 91 92 91 91 89 87 85 84 83 82 81 80 79 78 76 73 70 68 65 61 57 54 52 49 46 44 41 39 37 35
167 257 254 244 187 159 177 195 133 114 125 212 130 116 167 185 167 191 214 182 183 282 289 222 209 206 196 274 315 346 31 50 73 98 111 116 127 133 140 160 167 168 175 159 137 135 130 123 116 109 106 103 98 94 93 94 97 99 98 96 94 90 87 85 82 80 79 78 76 74 71 68 66 64 61 57 52 49 46 42 40 37 34 32 30 27
150 264 277 345 38 177 186 187 144 140 184 168 130 175 214 179 134 123 273 185 107 248 255 209 240 285 304 274 295 38 57 77 91 113 127 138 150 155 172 184 183 186 186 177 172 171 154 139 133 128 123 121 117 110 106 105 104 107 106 103 100 96 92 87 83 79 76 73 71 67 65 62 58 56 52 48 45 42 41 38 35 31 28 25 22 19
150 261 272 174 174 224 196 146 77 45 146 131 170 212 203 122 94 102 227 321 35 235 264 259 236 247 246 245 264 98 162 166 170 160 150 163 175 180 191 192 194 195 189 190 187 179 169 157 151 148 142 139 138 135 129 123 117 113 112 110 108 103 97 91 86 82 76 71 67 63 60 55 51 48 45 41 35 31 29 27 25 23 21 19 16 13
132 247 276 199 171 244 33 93 61 341 95 131 193 206 123 136 244 110 167 220 235 235 270 271 243 234 211 204 192 199 200 190 185 179 176 188 192 193 197 200 203 197 192 195 191 187 181 173 167 162 159 155 153 153 149 143 137 127 118 112 108 105 101 96 91 85 79 73 68 62 56 50 45 43 40 37 28 21 19 17 15 14 13 11 9 7
115 196 272 310 201 164 53 92 177 242 348 80 168 305 74 174 184 160 176 181 207 234 254 252 241 246 240 201 183 199 197 181 180 187 193 197 196 196 195 197 202 198 197 197 191 193 190 182 177 171 169 166 161 158 155 151 148 140 129 118 111 108 105 99 90 83 78 74 70 63 53 43 39 37 34 32 27 20 16 10 6 7 5 4 2 1
97 190 233 315 332 136 159 203 188 185 177 131 171 211 238 217 156 246 225 132 158 215 240 254 250 252 262 192 181 204 195 177 182 187 191 197 198 202 204 201 203 199 198 200 194 194 191 187 183 177 175 173 166 162 160 156 152 147 142 135 120 107 97 88 81 78 76 74 70 62 53 40 32 29 25 23 20 17 14 7 2 1 359 357 357 356
157 178 198 218 239 193 219 242 180 173 169 155 175 190 189 174 139 255 254 186 159 202 196 231 257 261 260 211 205 222 189 179 187 182 182 195 198 205 213 208 204 202 201 201 197 193 190 187 184 179 177 176 174 172 168 164 161 155 148 140 125 103 90 81 74 71 69 65 60 51 42 32 24 19 16 14 11 9 8 4 0 358 354 353 352 350
116 120 178 227 223 212 233 347 56 166 144 127 175 178 155 151 139 188 235 232 208 246 163 197 257 264 255 254 274 252 189 175 181 177 178 194 202 209 214 210 208 210 208 201 195 192 187 183 181 178 178 179 180 179 174 168 163 156 146 134 123 105 91 81 68 60 54 48 42 36 28 21 15 11 8 6 4 2 1 358 356 353 350 347 346 344
69 95 182 273 300 307 322 357 9 23 90 104 275 156 138 168 153 170 209 184 170 250 219 227 255 251 258 307 314 322 152 162 178 184 186 195 208 213 212 210 213 214 209 203 196 190 185 182 180 180 182 184 184 185 184 176 165 158 149 128 113 101 91 81 62 47 37 30 25 20 16 12 8 3 0 358 356 354 353 351 349 347 345 342 340 338
187 132 128 206 289 307 316 333 352 347 66 163 247 222 142 127 108 103 174 123 163 224 187 217 251 239 353 346 348 35 115 175 201 200 196 204 214 220 217 215 216 211 204 202 195 187 184 183 183 186 190 192 192 194 191 182 174 171 167 144 111 94 80 70 50 24 13 5 0 0 2 2 1 358 354 351 348 347 345 344 342 341 340 338 335 334
173 180 148 175 228 244 243 229 235 263 223 174 215 211 190 140 132 134 141 152 209 203 169 215 247 250 17 355 321 313 208 217 236 230 228 235 228 226 225 222 217 207 203 200 190 185 186 187 191 194 198 200 198 195 189 184 183 186 187 179 151 108 72 49 15 349 339 334 334 337 342 348 351 351 348 344 341 339 338 337 336 335 334 333 331 329
110 200 205 200 223 233 219 211 207 153 155 209 232 208 205 185 147 130 120 162 196 196 217 232 227 247 294 255 228 244 238 231 240 236 235 240 234 231 230 227 221 213 208 197 183 183 189 195 202 204 205 202 195 189 186 187 193 198 198 198 196 187 178 333 320 318 315 312 315 320 326 333 339 342 341 337 334 333 332 331 330 329 328 327 325 324
108 222 232 209 230 241 164 167 190 150 167 204 225 237 231 199 143 141 181 198 152 154 249 245 193 191 254 249 220 215 225 233 237 234 233 234 232 227 218 212 212 210 206 193 185 190 196 203 209 209 206 200 194 192 193 196 204 208 208 210 213 221 242 268 286 297 297 295 300 309 315 322 329 334 334 331 328 327 326 326 325 325 324 323 322 320
126 232 234 182 234 258 133 146 173 156 178 208 217 239 247 231 172 164 211 217 179 196 247 252 216 209 240 254 236 206 208 220 230 233 229 230 231 216 194 198 205 200 194 193 197 201 203 208 210 207 206 203 199 199 202 206 211 213 216 223 229 235 243 251 268 284 285 284 291 300 309 317 324 329 329 327 324 323 323 322 322 321 321 320 319 318
129 237 213 163 225 262 178 171 188 174 195 231 233 234 240 240 210 197 226 232 213 220 245 254 255 251 250 247 240 231 218 212 226 238 225 215 219 205 194 202 204 197 195 199 205 208 208 210 209 209 210 209 206 207 210 214 217 220 226 230 231 234 236 240 256 275 277 279 287 297 306 312 319 323 323 322 320 320 320 319 319 318 318 317 316 315
124 206 179 145 222 282 261 175 196 181 177 234 257 250 233 208 220 231 238 241 233 237 244 247 257 265 264 243 229 250 236 179 198 224 222 215 205 186 191 205 202 199 204 207 211 214 215 215 214 216 216 214 215 216 218 222 225 228 232 233 232 234 234 237 252 269 272 276 284 294 302 309 314 317 318 317 317 317 317 317 317 316 315 314 314 314
148 189 23 85 183 274 303 182 216 25 41 282 270 260 240 211 229 241 234 218 223 236 245 247 246 256 265 265 252 247 203 185 202 209 212 223 204 179 191 203 202 205 210 214 218 219 220 218 216 219 221 222 223 224 226 230 232 233 236 238 237 235 232 237 253 267 270 275 285 295 303 308 311 312 313 313 314 315 316 315 314 314 314 313 313 313
143 155 127 118 172 269 300 209 182 41 18 283 263 246 232 233 241 249 248 234 226 215 219 234 235 239 249 265 271 256 231 224 224 207 197 213 212 206 208 204 204 212 213 215 220 219 221 222 221 224 228 230 232 234 236 238 238 240 242 241 235 229 229 240 256 264 268 278 289 298 305 307 308 308 309 310 312 313 313 312 312 313 313 312 312 311
142 143 162 161 159 252 273 56 68 31 254 258 257 176 199 221 230 232 240 241 229 204 208 236 245 245 237 222 230 242 244 236 219 204 198 197 196 207 220 216 212 218 222 225 228 230 234 236 236 237 239 241 243 244 244 244 243 244 241 232 222 220 227 241 251 258 269 283 294 301 304 304 304 305 306 308 309 309 309 310 311 311 311 311 310 309
159 148 159 152 127 196 224 90 114 239 242 267 331 112 190 211 214 220 244 252 238 226 228 243 252 247 235 228 227 234 242 231 193 197 202 195 185 183 198 221 219 214 225 234 232 234 236 237 241 244 246 248 248 247 245 244 240 232 218 208 209 216 227 238 246 259 275 288 296 299 301 302 302 303 305 306 307 307 307 308 308 309 309 309 307 306
161 159 160 155 143 153 147 162 214 247 283 298 286 241 159 204 185 202 275 267 245 227 209 220 246 245 237 245 251 237 217 187 118 239 229 220 205 183 187 217 219 202 213 227 226 230 236 239 241 244 245 246 243 239 235 227 214 202 196 198 208 216 226 238 252 270 282 290 295 298 299 301 302 302 304 306 307 307 307 308 307 307 308 308 306 305
158 158 154 187 200 169 172 214 246 317 310 285 268 207 175 206 167 153 244 262 249 218 175 185 232 241 238 254 251 193 126 82 2 292 256 237 226 207 205 217 213 204 219 233 236 242 251 253 248 241 235 228 220 212 205 197 193 193 194 197 206 217 231 249 265 277 284 289 294 297 299 300 302 304 306 306 306 306 307 307 307 308 309 307 306 305
169 178 179 204 221 126 139 242 275 294 265 260 261 253 223 186 152 139 162 276 266 222 177 177 205 210 188 194 202 152 90 79 273 270 251 235 227 212 213 222 218 217 230 240 244 253 263 262 253 238 222 208 196 190 189 188 189 192 193 197 211 227 244 261 270 277 285 291 295 297 299 301 303 305 305 305 305 306 307 308 308 309 310 308 305 304
175 183 157 178 214 148 162 224 232 235 249 251 253 257 210 151 132 102 59 292 262 210 177 175 189 194 185 186 181 148 131 201 251 261 242 229 224 206 202 216 224 230 241 246 249 259 269 264 245 222 205 193 183 181 183 186 188 190 194 207 227 245 257 266 272 279 288 293 295 296 299 302 304 304 304 305 306 307 308 309 309 310 310 308 304 302
173 170 158 186 217 211 210 229 232 239 255 245 227 218 184 137 91 80 4 271 253 196 172 169 184 206 201 184 167 160 177 207 234 241 225 215 220 217 209 216 231 241 248 252 257 267 268 246 218 200 191 185 181 180 182 186 190 196 208 227 244 257 265 270 277 286 291 293 294 297 301 305 305 304 305 306 308 310 310 310 311 311 310 308 304 301
182 193 194 210 225 222 219 230 251 263 247 219 199 188 171 99 64 106 228 239 201 186 186 174 189 206 187 170 173 189 209 218 221 228 211 196 216 228 226 228 239 250 255 260 265 262 238 213 201 193 187 184 184 183 188 194 201 213 229 243 255 264 270 276 285 292 294 296 299 303 307 309 308 307 308 309 312 311 310 312 312 311 311 308 304 301
159 176 225 219 221 225 225 228 257 275 237 179 163 189 161 124 146 222 226 199 166 186 195 191 204 206 180 180 194 205 222 231 231 241 230 203 214 230 233 234 240 246 247 249 249 231 206 193 189 186 184 186 189 193 200 208 219 230 242 256 266 272 276 283 291 295 297 300 304 308 312 313 311 311 311 313 314 311 310 313 314 312 311 307 303 301
165 161 220 227 194 175 214 219 227 260 222 146 127 96 218 192 212 217 208 195 184 182 184 198 213 206 186 194 209 216 231 242 242 242 238 227 227 235 238 238 239 240 238 231 222 212 198 187 184 184 186 190 196 204 213 223 234 243 255 270 275 277 281 288 294 298 300 304 309 312 315 315 314 314 314 315 315 312 311 313 314 311 309 305 302 300
181 168 197 227 188 151 188 215 214 228 193 151 149 175 210 211 208 165 156 200 212 187 182 200 219 211 192 197 212 219 229 242 244 241 238 233 231 233 237 239 238 235 229 220 216 209 198 189 185 185 189 196 203 214 226 237 247 257 268 275 276 277 285 292 296 300 304 309 312 315 317 316 316 316 316 316 316 312 310 313 313 310 306 303 300 297
221 193 176 197 199 173 187 215 222 203 171 181 189 195 206 218 212 161 158 189 209 204 191 194 219 219 200 200 212 216 222 234 239 240 237 232 228 227 229 232 232 229 222 215 211 205 199 195 190 187 190 199 209 223 237 246 254 265 272 277 278 283 291 296 299 303 307 312 315 318 320 318 317 318 317 317 316 312 310 312 310 306 304 302 298 295
235 186 140 148 236 235 218 211 206 186 183 207 216 214 213 221 205 168 179 212 222 214 200 195 215 221 206 202 210 219 227 231 235 238 236 233 233 229 225 225 223 216 210 205 201 197 195 192 190 189 192 201 214 230 241 247 257 271 278 282 286 291 296 299 301 305 310 314 317 320 321 319 318 320 319 318 316 312 311 311 308 304 302 300 297 295
265 151 137 193 217 225 247 217 197 196 198 203 215 227 240 249 233 192 191 217 226 219 211 210 218 222 212 199 199 217 231 230 229 236 236 231 233 232 223 218 213 208 208 206 199 194 190 187 188 191 197 207 219 232 241 250 267 282 287 289 292 295 296 299 303 307 312 317 320 321 322 320 318 319 318 317 316 314 312 311 307 301 298 297 296 295
251 137 145 213 216 207 240 242 220 214 230 225 217 223 237 249 250 235 215 221 232 233 229 221 217 220 223 215 208 218 232 231 224 229 233 231 230 228 219 214 210 209 210 205 196 191 189 189 192 198 205 214 221 231 244 261 281 291 293 294 295 294 296 300 305 309 313 319 321 321 322 319 317 317 317 317 317 315 313 312 308 302 298 297 297 295
121 151 170 198 213 233 263 256 240 253 281 267 245 232 231 234 242 246 241 236 237 243 246 240 226 218 222 228 223 218 227 233 227 222 227 228 223 219 218 216 213 209 203 196 192 191 193 195 199 206 214 221 226 237 254 272 289 295 295 294 292 292 296 301 306 310 314 319 321 321 320 318 317 317 317 317 317 315 313 312 308 301 298 299 298 293
143 220 188 149 194 235 243 237 217 203 255 255 243 238 237 231 231 240 248 247 240 239 243 246 244 236 229 233 233 220 221 234 231 218 221 225 217 215 216 213 208 202 196 190 189 193 198 203 208 212 218 226 235 248 265 280 293 296 292 288 288 289 294 302 307 310 314 318 319 318 318 317 317 318 318 318 317 316 314 313 309 300 295 295 297 294
208 221 196 173 214 238 239 230 206 194 233 250 250 248 245 228 213 222 235 240 238 237 235 235 243 247 242 239 235 221 217 231 228 212 212 222 220 218 216 210 202 194 189 189 190 194 202 209 214 218 223 232 245 260 276 291 300 296 286 281 282 285 291 301 306 309 313 316 316 316 316 315 316 318 318 317 316 315 313 313 314 313 307 299 296 298